Orbital Elements
Epoch 2022 Jan. 21.0 TT = JDT 2459600.5
T 2022 Apr. 6.87351 TT Rudenko
q 0.9954888 (2000.0) P Q
z +0.0042347 Peri. 146.82232 +0.70298922 +0.60122326
+/-0.0000018 Node 203.45141 +0.23496396 +0.30785884
e 0.9957844 Incl. 107.32441 +0.67126604 -0.73739645
From 505 observations 2021 Mar. 19-2022 Feb. 20, mean residual 0".4.
|